TimeEDT,TemperatureF,Dew PointF,Humidity,Sea Level PressureIn,VisibilityMPH,Wind Direction,Wind SpeedMPH,Gust SpeedMPH,PrecipitationIn,Events,Conditions,WindDirDegrees,DateUTC
12:56 AM,68.0,51.1,55,29.87,10.0,SSW,17.3,24.2,N/A,,Mostly Cloudy,200,2013-04-24 04:56:00
1:56 AM,69.1,51.1,53,29.84,10.0,South,18.4,25.3,N/A,,Overcast,190,2013-04-24 05:56:00
2:56 AM,68.0,52.0,56,29.82,10.0,SSW,15.0,-,N/A,,Overcast,200,2013-04-24 06:56:00
3:56 AM,68.0,53.1,59,29.81,10.0,South,16.1,20.7,N/A,,Overcast,190,2013-04-24 07:56:00
4:56 AM,66.9,53.1,61,29.83,10.0,SSW,17.3,-,N/A,,Overcast,210,2013-04-24 08:56:00
5:56 AM,66.0,54.0,65,29.82,10.0,SSW,10.4,-,0.00,,Overcast,210,2013-04-24 09:56:00
6:44 AM,62.6,55.4,77,29.86,8.0,WSW,11.5,-,0.00,Rain,Light Rain,250,2013-04-24 10:44:00
6:56 AM,61.0,57.0,87,29.83,3.0,West,9.2,-,0.06,Rain,Rain,280,2013-04-24 10:56:00
7:31 AM,57.2,55.4,94,29.84,8.0,West,6.9,-,0.01,Rain,Light Rain,280,2013-04-24 11:31:00
7:44 AM,57.2,55.4,94,29.83,3.0,WNW,8.1,-,0.01,Rain,Rain,300,2013-04-24 11:44:00
7:47 AM,57.2,55.4,94,29.84,2.0,WNW,6.9,-,0.04,Rain,Heavy Rain,300,2013-04-24 11:47:00
7:50 AM,57.2,55.4,94,29.83,1.8,NW,6.9,-,0.05,Rain,Rain,310,2013-04-24 11:50:00
7:56 AM,57.0,55.0,93,29.84,1.5,WNW,8.1,-,0.08,Rain,Heavy Rain,290,2013-04-24 11:56:00
8:06 AM,55.4,53.6,94,29.84,2.0,WNW,8.1,-,0.04,Rain,Rain,300,2013-04-24 12:06:00
8:26 AM,53.6,51.8,94,29.86,3.0,WNW,16.1,-,0.11,Rain,Rain,300,2013-04-24 12:26:00
8:56 AM,50.0,48.0,93,29.84,3.0,NW,4.6,-,0.15,Rain,Rain,310,2013-04-24 12:56:00
8:58 AM,50.0,48.2,94,29.84,2.5,NNW,5.8,-,0.01,Rain,Heavy Rain,330,2013-04-24 12:58:00
9:15 AM,50.0,48.2,94,29.90,1.5,WNW,20.7,25.3,0.10,Rain,Heavy Rain,290,2013-04-24 13:15:00
9:30 AM,48.2,46.4,93,29.92,2.5,WNW,17.3,25.3,0.22,Rain,Rain,290,2013-04-24 13:30:00
9:42 AM,48.2,46.4,93,29.90,2.5,WNW,3.5,16.1,0.28,Rain,Rain,300,2013-04-24 13:42:00
9:46 AM,48.2,46.4,93,29.89,4.0,NW,3.5,-,0.31,Rain,Light Rain,320,2013-04-24 13:46:00
9:56 AM,48.9,46.0,90,29.88,4.0,NW,9.2,-,0.34,Rain,Light Rain,320,2013-04-24 13:56:00
10:22 AM,48.2,44.6,87,29.87,5.0,NW,4.6,-,0.03,Rain,Light Rain,310,2013-04-24 14:22:00
10:39 AM,48.2,44.6,87,29.85,4.0,NW,4.6,-,0.06,Rain,Rain,320,2013-04-24 14:39:00
10:56 AM,48.0,46.0,93,29.90,10.0,WNW,15.0,-,0.07,Rain,Light Rain,290,2013-04-24 14:56:00
11:10 AM,46.4,44.6,93,29.95,10.0,WNW,18.4,27.6,0.00,Rain,Light Rain,300,2013-04-24 15:10:00
11:49 AM,44.6,42.8,93,30.01,2.5,NW,15.0,-,0.01,Rain,Light Rain,310,2013-04-24 15:49:00
11:51 AM,44.6,42.8,93,30.01,2.5,NW,9.2,-,0.01,Rain,Light Rain,310,2013-04-24 15:51:00
11:56 AM,45.0,43.0,93,30.02,2.5,WNW,11.5,-,0.01,Rain,Light Rain,300,2013-04-24 15:56:00
12:03 PM,44.6,42.8,93,30.03,3.0,WNW,13.8,19.6,0.00,Rain,Light Rain,290,2013-04-24 16:03:00
12:26 PM,44.6,42.8,93,30.05,2.5,NW,15.0,23.0,0.01,Rain,Light Rain,310,2013-04-24 16:26:00
12:36 PM,44.6,42.8,93,30.05,3.0,WNW,11.5,-,0.01,Rain,Light Rain,290,2013-04-24 16:36:00
12:53 PM,44.6,42.8,93,30.04,4.0,WNW,13.8,-,0.01,Rain,Light Rain,300,2013-04-24 16:53:00
12:56 PM,46.0,43.0,89,30.04,5.0,WNW,11.5,-,0.01,Rain,Light Rain,300,2013-04-24 16:56:00
1:41 PM,46.4,41.0,81,30.07,10.0,NW,18.4,24.2,N/A,,Overcast,320,2013-04-24 17:41:00
1:48 PM,44.6,41.0,87,30.07,10.0,WNW,15.0,24.2,0.00,Rain,Light Rain,300,2013-04-24 17:48:00
1:56 PM,44.1,39.0,82,30.08,10.0,NW,17.3,27.6,0.00,,Overcast,310,2013-04-24 17:56:00
2:39 PM,46.4,39.2,76,30.08,10.0,WNW,16.1,24.2,N/A,,Overcast,290,2013-04-24 18:39:00
2:56 PM,46.9,39.0,74,30.09,10.0,NW,16.1,24.2,N/A,,Overcast,310,2013-04-24 18:56:00
3:56 PM,48.0,39.0,71,30.12,10.0,West,17.3,-,N/A,,Overcast,280,2013-04-24 19:56:00
4:56 PM,46.9,37.9,71,30.14,10.0,WNW,11.5,-,N/A,,Overcast,300,2013-04-24 20:56:00
5:56 PM,48.0,37.0,66,30.17,10.0,WNW,18.4,-,N/A,,Overcast,290,2013-04-24 21:56:00
6:46 PM,48.2,35.6,62,30.19,10.0,WNW,11.5,19.6,N/A,,Mostly Cloudy,290,2013-04-24 22:46:00
6:56 PM,48.0,35.1,61,30.19,10.0,West,13.8,-,N/A,,Mostly Cloudy,280,2013-04-24 22:56:00
7:56 PM,46.9,35.1,63,30.20,10.0,WNW,9.2,-,N/A,,Scattered Clouds,290,2013-04-24 23:56:00
8:56 PM,43.0,35.1,74,30.23,10.0,WNW,6.9,-,N/A,,Partly Cloudy,290,2013-04-25 00:56:00
9:56 PM,42.1,35.1,76,30.25,10.0,West,4.6,-,N/A,,Clear,280,2013-04-25 01:56:00
10:56 PM,42.1,35.1,76,30.27,10.0,SSW,3.5,-,N/A,,Clear,210,2013-04-25 02:56:00
11:56 PM,41.0,36.0,82,30.28,10.0,SSW,3.5,-,N/A,,Clear,210,2013-04-25 03:56:00